www.pogodaiklimat.ru
ПОГОДА в Пуэрто-Анхеле
Время
(UTC), дата
12 11.10
15 11.10
18 11.10
21 11.10
00 12.10
03 12.10
06 12.10
09 12.10
12 12.10
15 12.10
18 12.10
21 12.10
00 13.10
03 13.10
06 13.10
12 13.10
15 13.10
18 13.10
12 14.10
15 14.10
18 14.10
06 15.10
09 15.10
12 15.10
15 15.10
00 16.10
03 16.10
06 16.10
09 16.10
12 16.10
15 16.10
21 16.10
00 17.10
03 17.10
06 17.10
09 17.10
12 17.10
15 17.10
18 17.10
21 17.10
00 18.10
03 18.10
06 18.10
Ветер
(напр.,м/с)
Видим. Явления Облачность Т
(С)
Тd
(С)
f
(%)
Тe
(С)
Тes
(С)
Комфортность P
(гПа)
Po
(гПа)
Тmin
(С)
Tmax
(С)
R
(мм)
R24
(мм)
S
(см)
С 2 20 км 3/0
[Ac und Cs]
+24.8 +22.9 89 +33 +33 очень
душно
1010.5 1005.6 +24.0
В 2 30 км ясно +28.6 +24.3 78 +40 +47 очень
душно
1011.5 1006.5
ЮВ 2 30 км 1/1 600 м
[Cu med, cong]
+32.4 +26.6 72 +50 +66 опасность
перегрева
1011.5 1006.6 +24.0 +33.4
ЮЗ 2 30 км 1/1 600 м
[Cu med, cong]
+33.0 +26.4 68 +49 +59 опасность
перегрева
1010.0 1005.1
ЮЗ 2 30 км 10/5 600 м
[Cb cap Ac As]
+30.4 +26.4 79 +46 +46 опасность
перегрева
1009.4 1004.5 +24.0 +34.0
С 2 30 км 5/0
[Cs]
+26.2 +23.2 84 +35 +35 очень
душно
1011.4 1006.6
С 2 30 км 6/1 600 м
[Cu med, cong Ac As]
+26.0 +23.2 85 +35 +35 очень
душно
1012.3 1007.4 +34.0
С 2 30 км 8/3 600 м
[Cb cap Ac As]
+25.4 +23.2 88 +34 +34 очень
душно
1011.6 1006.7
С 2 30 км ясно +25.2 +23.6 91 +34 +34 очень
душно
1010.9 1006.0 +24.2 +34.0
ЮЗ 2 30 км 1/1 600 м
[Cu med, cong]
+28.6 +24.5 79 +41 +47 опасность
перегрева
1011.5 1006.6
ЮЗ 2 30 км 8/1 600 м
[Cu med, cong Cs]
+31.4 +25.5 71 +46 +59 опасность
перегрева
1011.5 1006.6 +24.2 +32.4
ЮЗ 2 30 км 1/1 600 м
[Cu med, cong]
+32.4 +26.6 72 +50 +59 опасность
перегрева
1009.2 1004.3
З 2 30 км 9/1 600 м
[Cu med, cong Cs]
+30.2 +26.2 79 +46 +46 опасность
перегрева
1009.0 1004.1 +24.2 +33.4
З 2 20 км 5/1 600 м
[Cu med, cong Ac und Cs]
+27.4 +25.5 89 +40 +40 очень
душно
1010.8 1006.0
СЗ 2 20 км 6/5 600 м
[Cu med, cong Ac und]
+27.4 +25.5 89 +40 +40 очень
душно
1011.1 1006.2 +33.4
С 2 20 км 1/0
[Cs]
+25.2 +23.6 91 +34 +34 очень
душно
1010.5 1005.6 +24.4 +33.4
З 3 20 км 3/1 600 м
[Cu med, cong Cs]
+29.0 +25.0 79 +42 +46 опасность
перегрева
1011.4 1006.5
ЮЗ 3 20 км 1/1 600 м
[Cu med, cong]
+32.6 +26.3 70 +49 +63 опасность
перегрева
1011.4 1006.5 +24.4 +33.0
С 2 30 км 3/1 600 м
[Cu med, cong Cs]
+24.6 +20.9 80 +31 +31 очень
душно
1010.0 1005.1 +23.8 +33.6
С 2 30 км 4/1 600 м
[Cu med, cong Cs]
+27.6 +22.9 76 +37 +42 очень
душно
1011.9 1007.0
ЮВ 2 30 км 4/1 600 м
[Cu med, cong Cs]
+32.0 +25.3 68 +46 +61 опасность
перегрева
1011.7 1006.8 +23.8 +32.2
С 2 30 км ясно +27.0 +25.1 89 +39 +39 очень
душно
1012.4 1007.6 +34.0
С 2 30 км ясно +25.4 +24.3 94 +35 +35 очень
душно
1012.1 1007.2
С 2 30 км ясно +24.6 +22.4 88 +32 +32 очень
душно
1009.7 1004.8 +24.0 +34.0
ЮВ 2 30 км 8/1 600 м
[Cu med, cong Ac As Cs]
+28.0 +23.6 77 +38 +42 очень
душно
1010.2 1005.3
Ю 2 30 км 10/1 600 м
[Cu med, cong Ac As Cs]
+29.6 +26.4 83 +45 +45 опасность
перегрева
1008.4 1003.5 +24.0 +32.0
ЮЗ 5 20 км 10/8 600 м
[Cb cap As op]
+27.6 +25.2 87 +40 +40 очень
душно
1010.2 1005.4
С 2 20 км {дождь} 10/8 600 м
[Cb cap As op]
+24.0 +23.5 97 +32 +32 очень
душно
1011.4 1006.5 61
С 2 20 км слаб. дождь {морось} 10/8 600 м
[Cb cap As op]
+23.8 +23.2 96 +32 +32 очень
душно
1009.9 1005.0 3
С 2 20 км слаб. дождь {морось} 10/6 600 м
[Cb cap As op]
+23.8 +23.2 96 +32 +32 очень
душно
1009.8 1004.9 +23.6 +32.0 2
С 3 20 км слаб. дождь {морось} 10/8 600 м
[Cb cap As op]
+24.2 +22.5 90 +32 +32 очень
душно
1011.6 1006.6 18
С 3 20 км {дождь} 10/5 600 м
[Cb cap Ac As]
+24.8 +23.7 94 +34 +35 очень
душно
1010.3 1005.3 26
В 3 20 км {дождь, морось} 10/6 600 м
[Cb cap As op]
+25.2 +24.7 97 +35 +35 очень
душно
1010.7 1005.7 +23.6 +26.8 28
СВ 1 30 км {дождь} 10/6 600 м
[Cb cap As op]
+24.4 +23.9 97 +33 +33 очень
душно
1011.1 1006.2 12
С 1 30 км 10/4 600 м
[Cu med, cong Ac und]
+24.0 +23.7 98 +33 +33 очень
душно
1011.4 1006.4 +23.8 +26.8
С 1 30 км слаб. морось {дождь} 10/5 600 м
[Cu med, cong As op]
+23.8 +23.2 96 +32 +32 очень
душно
1010.7 1005.8 14
С 1 30 км {дождь} 9/3 600 м
[Cu med, cong Ac und]
+23.8 +23.0 95 +32 +32 очень
душно
1010.5 1005.9 +22.0 +26.8 1
В 1 30 км 10/3 600 м
[Cu med, cong Ac und Cs]
+26.6 +23.9 85 +37 +39 очень
душно
1011.5 1006.5
ЮВ 1 30 км 10/3 600 м
[Cu med, cong Ac und Cs]
+29.6 +25.0 76 +42 +50 опасность
перегрева
1013.1 1007.8 +22.0 +30.0
Ю 1 30 км 10/1 600 м
[Cu med, cong Ac und Cs]
+30.0 +24.9 74 +43 +48 опасность
перегрева
1011.3 1006.4
ЮЗ 1 30 км {дождь, гроза} 10/1 600 м
[Cu med, cong Ac und Cs]
+27.8 +24.8 84 +40 +40 очень
душно
1011.3 1006.3 +22.0 +31.0 26
С 1 20 км 1/1 600 м
[Cu med, cong]
+25.4 +24.6 95 +36 +36 очень
душно
1013.3 1008.4
С 2 20 км 3/1 600 м
[Cu med, cong Ac und]
+24.8 +24.0 95 +34 +34 очень
душно
1014.0 1009.1 +31.0
Местоположение метеостанции Пуэрто-Анхель (Мексика): широта 15.68 долгота -96.48 высота над уровнем моря 46 м.
В архиве по умолчанию представлена погода в Пуэрто-Анхеле за последнюю неделю. Архивные данные за месяц целиком и за предыдущие месяцы, начиная с января 2011 года, Вы можете получить, выбрав интересующий диапазон дат из раскрывающегося списка и нажав кнопку "Найти!".
*Определитесь, кто Вы:
Внимание! Время в таблицах - всемирное. Для получения местного времени необходимо прибавить поправку, которая равна -6 ч.
Смотрите также архив погоды в соседних городах и на ближайших метеорологических станциях:
Партнеры нашего сайта:      
Пояснения к столбцам:
  • Ветер - указаны скорость ветра в м/с - средняя за 10 мин, порывы в срок и между сроками (в фигурных скобках) и направление, откуда дует ветер: С - северный,
  • СВ - северо-восточный, В - восточный, ЮВ - юго-восточный, Ю - южный, ЮЗ - юго-западный, З - западный, СЗ - северо-западный.
  • Видимость - горизонтальная дальность видимости в метрах или километрах. При видимости от 1 до 10 км при отсутствии осадков обычно наблюдается дымка, при ухудшении видимости до 1 км и менее - туман. В сухую погоду видимость может ухудшаться дымом, пылью или мглою.
  • Явления - указаны атмосферные явления, наблюдавшиеся в срок или в последний час перед сроком; фигурными скобками обозначены явления, наблюдавшиеся между сроками (за 1-3 часа до срока); квадратными скобками обозначены град или гололедные отложения с указанием их диаметра в мм.
  • Облачность - указаны через наклонную черту общая и нижняя облачность в баллах и высота нижней границы облаков в метрах; квадратными скобками обозначены формы облаков: Ci - перистые, Cs - перисто-слоистые, Cc - перисто-кучевые, Ac - высококучевые, As - высокослоистые, Sc - слоисто-кучевые, Ns - слоисто-дождевые, Cu - кучевые, Cb - кучево-дождевые. Подробнее классификацию облаков см. в Атласе облаков (PDF).
  • T - Температура воздуха - температура, измеренная на высоте 2 м над землей.
  • Td - Температура точки росы - температура, при понижении до которой содержащийся в воздухе водяной пар достигнет насыщения.
  • f - Относительная влажность воздуха - влажноcть воздуха, измеренная на высоте 2 м над землей.
  • Te - Эффективная температура - температура, которую ощущает одетый по сезону человек в тени. Характеристика душности погоды. При расчете учитывается влияние влажности воздуха и скорости ветра на теплоощущения человека.
  • Tes - Эффективная температура на солнце - температура, которую ощущает человек, с поправкой на солнечный нагрев. Характеристика знойности погоды. Зависит от высоты солнца над горизонтом, облачности и скорости ветра. Ночью, в пасмурную погоду, а также при ветре 12 м/с и более поправка равна нулю.
  • P - Атмосферное давление - приведенное к уровню моря атмосферное давление.
  • Po - Атмосферное давление - измеренное на уровне метеостанции атмосферное давление.
  • Tmin - Минимальная температура - минимум температуры воздуха на высоте 2 м над землей.
  • Tmax - Максимальная температура - максимум температуры воздуха на высоте 2 м над землей.
  • R - Количество осадков - Количество выпавших осадков за период времени, мм. При наведении курсора мыши на число - период времени, за который выпало указанное количество осадков.
  • R24 - Количество осадков - Количество выпавших осадков за 24 часа, мм.
  • S - Снежный покров - Высота снежного покрова, см. При наведении курсора мыши на число - состояние снежного покрова и степень покрытия местности в баллах.